Regional Weather Roundup
Issued by NWS Kansas City/Pleasant Hill, MO

Home | Current Version | Previous Version | Text Only | Print | Product List | Glossary On
Versions: 1 2 3 4 5 6 7 8 9 10 11 12 13 14 15 16 17 18 19 20 21 22 23 24 25 26 27
000
ASUS43 KEAX 280310
RWREAX

WEATHER ROUNDUP FOR EASTERN KANSAS AND NORTHWEST MISSOURI
NATIONAL WEATHER SERVICE KANSAS CITY/PLEASANT HILL MO
1000 PM CDT THU APR 27 2017

KSZ040-057-103>105-MOZ028-029-037-043-280400-
...KANSAS CITY METROPOLITAN AREA...

CITY           SKY/WX    TMP DP  RH WIND       PRES   REMARKS
K.C. INTL      CLOUDY    52  46  80 NE5       29.75F
K.C. DOWNTOWN  CLOUDY    54  48  80 NE6       29.74F
LEES SUMMIT    MOCLDY    53  50  89 E7        29.74F
OLATHE - IXD   CLOUDY    52  48  86 NE7       29.74R
OLATHE - OJC   CLOUDY    51  49  92 NE7       29.73R
LAWRENCE       CLOUDY    52  49  89 NE6       29.74R

$$

MOZ001>008-011>017-020>025-030>033-038>040-044>046-053-054-280400-
...NORTHERN AND CENTRAL MISSOURI...

CITY           SKY/WX    TMP DP  RH WIND       PRES   REMARKS
ST. JOSEPH     CLOUDY    51  50  96 NE7       29.77F
MOSBY          CLOUDY    52  46  82 E6        29.74F
WHITEMAN AFB   MOCLDY    55  51  86 NE7       29.73F
CLINTON        MOCLDY    54  45  71 E6        29.73S
SEDALIA        CLOUDY    56  48  74 NE12      29.76F
WARSAW         NOT AVBL
CHILLICOTHE      N/A     53  47  79 S8        29.83R
KIRKSVILLE     CLOUDY    53  45  74 S7        29.83R

$$

MOZ041-047>049-056>058-063>065-088>090-097-280400-
...EASTERN AND SOUTHERN MISSOURI...

CITY           SKY/WX    TMP DP  RH WIND       PRES   REMARKS
ST. LOUIS INTL CLOUDY    57  46  66 CALM      29.86R
SPIRIT OF STL  MOCLDY    53  52  96 CALM      29.85R
COLUMBIA       CLOUDY    54  51  90 N6        29.84R
JEFFERSON CITY CLOUDY    57  48  72 E3        29.83R
ROLLA          CLOUDY    55  48  77 NE9       29.80S
OSAGE BEACH    CLOUDY    57  46  66 NE7       29.76F
SPRINGFIELD    CLOUDY    60  43  53 E10       29.72F
BRANSON        CLOUDY    57  46  67 SE14      29.75R
JOPLIN         CLOUDY    56  48  74 E5        29.73R
WEST PLAINS    CLOUDY    58  48  69 SE5       29.82R

$$

IAZ060-094-KSZ022-034>040-054-083-096-NEZ052-066-093-280400-
...KANSAS...SOUTHEAST NEBRASKA AND IOWA...

CITY           SKY/WX    TMP DP  RH WIND       PRES   REMARKS
TOPEKA         CLOUDY    53  48  83 E7        29.73R
MANHATTAN      CLOUDY    51  46  83 E7        29.72R
EMPORIA        CLOUDY    52  47  83 E8        29.71R
CHANUTE        MOCLDY    56  48  74 E6        29.71S
WICHITA        CLOUDY    55  45  68 E17       29.59F
OMAHA          MOCLDY    51  35  54 E8        29.76R
LINCOLN        CLOUDY    52  40  63 S6        29.76R
FALLS CITY     LGT RAIN  50  47  89 S6        29.77R
LAMONI         CLOUDY    52  40  63 N7        29.79R
DES MOINES     CLOUDY    47  34  60 NE6       29.81R

$$





USA.gov is the U.S. government's official web portal to all federal, state and local government web resources and services.